Regional Weather Roundup
Issued by NWS Sioux Falls, SD

Home | Current Version | Previous Version | Text Only | Print | Product List | Glossary On
Versions: 1 2 3 4 5 6 7 8 9 10 11 12 13 14 15 16 17 18 19 20 21 22 23 24 25 26 27 28 29 30 31 32 33 34 35 36 37 38 39 40 41 42 43 44 45 46 47 48 49 50
000
ASUS43 KFSD 010310
RWRFSD

WEATHER ROUNDUP FOR SE SOUTH DAKOTA/SW MINNESOTA/NW IOWA
NATIONAL WEATHER SERVICE SIOUX FALLS SD
1000 PM CDT MON AUG 31 2015

NOTE: "FAIR" INDICATES FEW OR NO CLOUDS BELOW 12,000 FEET WITH NO
SIGNIFICANT WEATHER AND OR OBSTRUCTIONS TO VISIBILITY.


SDZ038>040-050-052>070-010400-
SOUTHEAST SOUTH DAKOTA

CITY           SKY/WX    TMP DP  RH WIND       PRES   REMARKS
BROOKINGS      PTCLDY    73  68  83 S8        29.91R
CHAMBERLAIN    PTCLDY    71  64  78 NE3       29.92R
HURON          MOCLDY    67  65  93 NW3       29.89R
MADISON        FAIR      70  70 100 S7        29.91R
MITCHELL       MOCLDY    71  68  90 NW5       29.88R
SIOUX FALLS    PTCLDY    76  68  76 S12       29.90R
WINNER         FAIR      72  62  71 NE5       29.93R
YANKTON        CLEAR     73  68  83 E5        29.88R
$$

MNZ071-072-080-081-089-090-097-098-010400-
SOUTHWEST MINNESOTA

CITY           SKY/WX    TMP DP  RH WIND       PRES   REMARKS
FAIRMONT       CLEAR     68  61  77 S6        29.93R
JACKSON        CLEAR     70  66  88 S8        29.94S
LUVERNE        CLEAR     72  68  88 CALM      29.92R
MARSHALL       CLEAR     73  66  78 S9        29.90S
MONTEVIDEO     PTCLDY    73  70  88 S9        29.87S
PIPESTONE      CLEAR     72  68  88 S5        29.92S
REDWOOD FALLS  CLEAR     73  68  84 S8        29.89R
TRACY          CLEAR     73  69  86 S10       29.90S
WINDOM         CLEAR     72  66  83 S7        29.93R
WORTHINGTON    CLEAR     70  64  83 S6        29.93R
$$

IAZ001>003-012>014-020>022-031-032-NEZ013-014-SDZ071-010400-
NORTHWEST IOWA

CITY           SKY/WX    TMP DP  RH WIND       PRES   REMARKS
CHEROKEE       CLEAR     69  69  98 S3        29.92S
DENISON        CLOUDY    70  68  94 SE5       29.92S
ESTHERVILLE    CLEAR     67  65  93 S7        29.93S
LE MARS        CLEAR     72  68  88 CALM      29.92R
ORANGE CITY    CLEAR     72  68  88 S5        29.92S
SHELDON        PTCLDY    70  68  94 S6        29.91R
SIOUX CITY     CLEAR     73  67  81 SE8       29.90R
SPENCER        CLEAR     70  65  84 S7        29.93S HAZE
STORM LAKE     CLEAR     70  68  94 S8        29.95S
$$

ABBREVIATIONS USED IN REMARKS
   TC - TEMPERATURE IN CELSIUS
  WCI - WIND CHILL INDEX
   HX - HEAT INDEX
  VSB - VISIBILITY



USA.gov is the U.S. government's official web portal to all federal, state and local government web resources and services.